Home   Weather   Pinetop-Lakeside   Past weeks
Flag for USA

Past Weather in Pinetop-Lakeside, Arizona, USA — Yesterday and Last 2 Weeks

Now
63 °F

Clear.


Feels Like: 63 °F
Forecast: 84 / 62 °F
Wind: 9 mph from South

Location: Show Low Municipal

Current Time: Jul 17, 2019 at 5:56:20 am

Latest Report: Jul 17, 2019 at 5:15 am


Visibility: 10 mi

Pressure: 30.26 "Hg (23.70 "Hg at 2074m altitude)

Humidity: 52%

Dew Point: 45 °F

Location of Pinetop-LakesideLocation

Past Weather in Pinetop-Lakeside — Graph

°F

Pinetop-Lakeside Temperature Yesterday

Maximum temperature yesterday: 91 °F (at 12:35 pm)
Minimum temperature yesterday: 66 °F (at 3:55 am)
Average temperature yesterday: 79 °F

High & Low Weather Summary for the Past Weeks

 TemperatureHumidityPressure
High93 °F (Jul 15, 1:55 pm)94% (Jul 7, 7:15 pm)30.40 "Hg (Jul 7, 7:15 pm)
Low52 °F (Jul 9, 5:55 am)7% (Jul 4, 3:55 pm)30.12 "Hg (Jul 3, 3:35 pm)
Average73 °F31%30.27 "Hg
* Reported Jul 2 4:15 am — Jul 17 4:35 am, Pinetop-Lakeside. Weather by CustomWeather, © 2019

Note: Actual official high and low records may vary slightly from our data, if they occured in-between our weather recording intervals... More about our weather records

Advertising

Pinetop-Lakeside Weather History for the Previous 24 Hours

Scroll right to see more
 ConditionsComfort  
Time TempWeatherWind HumidityBarometerVisibility
4:35 am
Wed, Jul 17
63 °FClear.9 mph52%30.25 "Hg10 mi
4:15 am64 °FClear.9 mph49%30.24 "Hg10 mi
3:55 am66 °FClear.9 mph46%30.24 "Hg10 mi
3:35 am66 °FClear.9 mph46%30.24 "Hg10 mi
3:15 am66 °FClear.9 mph46%30.23 "Hg10 mi
2:55 am66 °FClear.9 mph46%30.22 "Hg10 mi
2:35 am66 °FClear.8 mph46%30.22 "Hg10 mi
2:15 am66 °FClear.10 mph46%30.22 "Hg10 mi
1:55 am66 °FClear.10 mph46%30.23 "Hg10 mi
1:35 am66 °FClear.9 mph46%30.23 "Hg10 mi
1:15 am66 °FClear.9 mph46%30.23 "Hg10 mi
12:55 am68 °FClear.9 mph40%30.24 "Hg10 mi
12:35 am68 °FClear.10 mph40%30.24 "Hg10 mi
12:15 am70 °FClear.9 mph35%30.24 "Hg10 mi
11:55 pm
Tue, Jul 16
70 °FClear.10 mph35%30.24 "Hg10 mi
11:35 pm70 °FClear.10 mph33%30.24 "Hg10 mi
11:15 pm70 °FClear.12 mph31%30.24 "Hg10 mi
10:55 pm72 °FClear.10 mph27%30.24 "Hg10 mi
10:35 pm70 °FClear.7 mph31%30.24 "Hg10 mi
10:15 pm70 °FClear.7 mph31%30.23 "Hg10 mi
9:55 pm72 °FClear.7 mph27%30.23 "Hg10 mi
9:35 pm73 °FClear.7 mph25%30.23 "Hg10 mi
9:15 pm75 °FClear.8 mph25%30.23 "Hg10 mi
8:55 pm77 °FClear.7 mph24%30.22 "Hg10 mi
8:35 pm79 °FClear.9 mph23%30.21 "Hg10 mi
8:15 pm81 °FClear.10 mph21%30.20 "Hg10 mi
7:55 pm81 °FClear.13 mph21%30.20 "Hg10 mi
7:35 pm82 °FClear.13 mph20%30.19 "Hg10 mi
7:15 pm84 °FSunny.13 mph18%30.19 "Hg10 mi
6:55 pm84 °FSunny.12 mph19%30.18 "Hg10 mi
6:35 pm84 °FSunny.9 mph20%30.17 "Hg10 mi
6:15 pm86 °FSunny.15 mph18%30.17 "Hg10 mi
5:55 pm88 °FSunny.12 mph17%30.17 "Hg10 mi
5:35 pm90 °FPassing clouds.14 mph16%30.16 "Hg10 mi
4:55 pm88 °FPassing clouds.17 mph17%30.17 "Hg10 mi
4:35 pm88 °FScattered clouds.15 mph17%30.17 "Hg10 mi
4:15 pm88 °FPartly sunny.15 mph18%30.17 "Hg10 mi
3:55 pm88 °FOvercast.12 mph18%30.17 "Hg10 mi
3:35 pm88 °FPartly sunny.9 mph18%30.18 "Hg10 mi
3:15 pm88 °FScattered clouds.14 mph17%30.19 "Hg10 mi
2:55 pm90 °FPartly sunny.13 mph18%30.19 "Hg10 mi
2:35 pm86 °FPartly sunny.9 mph19%30.20 "Hg10 mi
2:15 pm84 °FPartly sunny.13 mph22%30.21 "Hg10 mi
1:35 pm90 °FSunny.13 mph18%30.21 "Hg10 mi
1:15 pm90 °FSunny.12 mph18%30.22 "Hg10 mi
12:55 pm90 °FPassing clouds.16 mph18%30.22 "Hg10 mi
12:35 pm91 °FScattered clouds.14 mph18%30.23 "Hg10 mi
12:15 pm90 °FSunny.15 mph20%30.24 "Hg10 mi
11:55 am88 °FSunny.8 mph19%30.25 "Hg10 mi
11:35 am90 °FPassing clouds.13 mph20%30.25 "Hg10 mi
11:15 am86 °FScattered clouds.9 mph20%30.25 "Hg10 mi
10:55 am90 °FPartly sunny.9 mph18%30.25 "Hg10 mi
10:35 am88 °FPartly sunny.9 mph19%30.26 "Hg10 mi
10:15 am86 °FSunny.10 mph20%30.26 "Hg10 mi
9:55 am86 °FSunny.5 mph20%30.26 "Hg10 mi
9:35 am84 °FSunny.No wind25%30.26 "Hg9 mi
9:15 am84 °FSunny.No wind25%30.26 "Hg10 mi
8:55 am82 °FSunny.No wind26%30.27 "Hg10 mi
8:35 am81 °FSunny.6 mph30%30.27 "Hg10 mi
8:15 am73 °FSunny.5 mph44%30.27 "Hg10 mi
7:55 am73 °FSunny.7 mph41%30.26 "Hg10 mi
7:35 am75 °FPassing clouds.7 mph39%30.26 "Hg10 mi
7:15 am73 °FPartly sunny.7 mph41%30.26 "Hg10 mi
6:35 am72 °FPartly sunny.No wind44%30.25 "Hg10 mi
6:15 am72 °FPartly sunny.No wind41%30.24 "Hg10 mi
5:55 am68 °FPartly sunny.No wind46%30.24 "Hg10 mi
5:35 am66 °FPassing clouds.No wind49%30.24 "Hg10 mi
5:15 am66 °FPassing clouds.No wind46%30.24 "Hg10 mi
Weather by CustomWeather, © 2019

See weather overview